This demonstration page uses our WeatherBlox Daily Observations layout. Learn more.

39.92423, -83.80882

Hourly Observations for May 16, 2016

Temp ( °F °C ) Dew Point ( °F °C ) Humidity (%) Winds ( mph kmh ) Pressure ( in mb ) Visibility ( mi km ) Precip ( " mm )
12:56 am 00:56 Clear 37 2.7 30 -1.1 76 76 Calm 30.24 1024 10 16.0934 0 0
1:56 am 01:56 Clear 34 1.1 31 -0.5 89 89 SSW 5 7 30.25 1024 10 16.0934 0 0
2:56 am 02:56 Clear 36 2.2 30 -1.1 79 79 SSW 5 7 30.24 1024 10 16.0934 0 0
3:56 am 03:56 Clear 35 1.6 29 -1.6 80 80 SSW 5 7 30.24 1024 10 16.0934 0 0
4:56 am 04:56 Clear 33 0.5 29 -1.6 86 86 Calm 30.24 1024 10 16.0934 0 0
5:56 am 05:56 Clear 33 0.5 29 -1.6 86 86 SSW 3 6 30.24 1024 10 16.0934 0 0
6:56 am 06:56 Sunny 33 0.5 30 -1.1 89 89 Calm 30.25 1024 10 16.0934 0 0
7:56 am 07:56 Sunny 41 5 29 -1.6 63 63 SSW 8 13 30.27 1025 10 16.0934 0 0
8:56 am 08:56 Sunny 44 6.6 33 0.5 65 65 S 8 13 30.29 1026 10 16.0934 0 0
9:56 am 09:56 Sunny 51 10.5 34 1.1 52 52 SW 9 15 30.29 1026 10 16.0934 0 0
10:56 am 10:56 Sunny 55 12.7 33 0.5 43 43 SW 9 15 30.29 1026 10 16.0934 0 0
11:56 am 11:56 Sunny 57 13.8 31 -0.5 38 38 S 10 17 30.27 1025 10 16.0934 0 0
12:56 pm 12:56 Sunny 58 14.4 31 -0.5 36 36 VRB 7 11 30.26 1025 10 16.0934 0 0
1:56 pm 13:56 Sunny 60 15.5 31 -0.5 34 34 VRB 6 9 30.24 1024 10 16.0934 0 0
2:56 pm 14:56 Sunny 62 16.6 35 1.6 37 37 VRB 7 11 30.22 1024 10 16.0934 0 0
3:56 pm 15:56 Sunny 63 17.2 34 1.1 34 34 WSW 10 17 30.22 1024 10 16.0934 0 0
4:56 pm 16:56 Sunny 63 17.2 33 0.5 33 33 SSW 8 13 30.22 1023 10 16.0934 0 0
5:56 pm 17:56 Sunny 64 17.7 32 0 30 30 WSW 6 9 30.2 1023 10 16.0934 0 0
6:56 pm 18:56 Sunny 62 16.6 33 0.5 34 34 SSW 3 6 30.19 1022 10 16.0934 0 0
7:56 pm 19:56 Sunny 60 15.5 35 1.6 39 39 SSW 6 9 30.19 1022 10 16.0934 0 0
8:56 pm 20:56 Clear 58 14.4 37 2.7 46 46 S 3 6 30.19 1022 10 16.0934 0 0
9:56 pm 21:56 Clear 57 13.8 39 3.8 51 51 S 5 7 30.19 1023 10 16.0934 0 0
10:56 pm 22:56 Mostly Cloudy 56 13.3 40 4.4 55 55 S 3 6 30.2 1023 10 16.0934 0 0
11:56 pm 23:56 Clear 55 12.7 40 4.4 57 57 SSW 3 6 30.2 1023 10 16.0934 0 0

Powered by AerisWeather